sat.trackr.live / text

‹ back to catalog

FORTE

NORAD 24920 · 1997-047A

PAYLOAD ACTIVE UNKNOWN

§ Identity

Operator
Country
US
Launch date
1997-08-29
Launch site
WRAS
Launch vehicle
Mass (kg)
RCS (m²)
1.35

External: N2YO · Heavens-Above · Gunter

§ Orbital elements

Epoch: 2026-09-19T10:48:19.224000Z

Period
100.84 min
Inclination
69.9536°
Eccentricity
0.0020560
Mean motion
14.27975585 rev/d
Perigee alt
783.8 km
Apogee alt
813.3 km
Semi-major
7,176.6 km
B*
5.8358e-5
RAAN
161.1020°
Arg perigee
156.5516°
Mean anomaly
203.6548°
Rev number
51,214

§ Raw data

FORTE1 24920U 97047A   26262.45022250  .00000087  00000+0  58358-4 0  99992 24920  69.9536 161.1020 0020560 156.5516 203.6548 14.27975585512144

JSON: /api/v1/satellites/24920 · /tle

For live sub-satellite position, see the globe view (requires WebGL).

§ Visibility from observer

Set your observer location to see the next 7 days of passes ≥ 10°. The values pass through the URL so the page stays shareable.

No JS? Fill the form by hand. The geolocation button needs JavaScript.

§ Radio — SatNOGS DB

ModeDescriptionDownlinkUplink
CW CW 401.568 MHz
BPSK TLM U 401.570 MHz

2 transmitters · refreshed weekly from db.satnogs.org